Tracking 28096 objects as of 29-Sep-2023
HD Live streaming from Space Station
objects crossing your sky now

STARLINK-30328

Track STARLINK-30328 now!
10-day predictions
STARLINK-30328 is classified as:


NORAD ID: 57638
Int'l Code: 2023-122G
Perigee: 465.4 km
Apogee: 468.7 km
Inclination: 43.0 °
Period: 93.8 minutes
Semi major axis: 6838 km
RCS: Unknown
Launch date: August 17, 2023
Source: United States (US)
Launch site: AIR FORCE EASTERN TEST RANGE (AFETR)
Your satellite tracking list
Your tracking list is empty




NASA's NSSDC Master Catalog

Two Line Element Set (TLE):
1 57638U 23122G   23268.07134091 -.00057301  00000-0 -16384-2 0  9997
2 57638  43.0007 282.5766 0002404 319.7205  40.3471 15.35330270  7362
Source of the keplerian elements: AFSPC